WX4FUN-13 Weather Reports


time (UTC)temp
F
wind
direction
speed
knots
gust
knots
rain 1hr
in
rain 24hr
in
rain mn
in
humidity
%
barometer
mb
20260502151425 54 228 0.9 2.6 0.00 0.25 0.25 79 1012.2
20260502150424 54 0 0.0 1.7 0.00 0.25 0.25 79 1012.2
20260502130355 49 0 0.0 1.7 0.00 0.25 0.25 93 1012.6
20260502123341 49 0 0.0 0.0 0.00 0.25 0.25 95 1012.7
20260502122341 49 0 0.0 0.0 0.01 0.25 0.25 96 1012.6
20260502121342 49 0 0.0 1.7 0.04 0.25 0.25 96 1012.7
20260502120342 48 0 0.0 0.9 0.06 0.25 0.25 96 1012.8
20260502115344 48 0 0.0 0.9 0.11 0.25 0.25 96 1012.7
20260502114329 47 0 0.0 1.7 0.12 0.25 0.25 95 1012.7
20260502113327 47 0 0.0 0.0 0.12 0.25 0.25 95 1012.8
20260502112329 47 45 0.0 0.9 0.11 0.24 0.24 95 1013.1
20260502111327 47 0 0.0 1.7 0.11 0.22 0.22 95 1013.3
20260502110328 47 298 0.0 1.7 0.11 0.19 0.19 95 1013.0
20260502105329 47 0 0.0 0.0 0.07 0.14 0.14 94 1012.9
20260502104314 47 0 0.0 0.0 0.06 0.13 0.13 94 1012.8
20260502103314 47 0 0.0 0.9 0.06 0.13 0.13 94 1012.6
20260502102315 47 0 0.0 0.0 0.06 0.13 0.13 93 1012.8
20260502101314 47 0 0.0 0.9 0.04 0.11 0.11 93 1013.2
20260502100259 47 264 0.0 1.7 0.01 0.08 0.08 93 1013.0
20260502091258 48 256 0.0 1.7 0.00 0.07 0.07 93 1012.1
20260502090258 48 0 0.0 0.9 0.03 0.07 0.07 93 1012.0
20260502071201 50 0 0.0 1.7 0.02 0.03 0.03 90 1011.7
20260502070201 50 0 0.0 0.9 0.02 0.03 0.03 89 1012.3
20260502065201 50 0 0.0 1.7 0.01 0.02 0.02 88 1012.3
20260502064203 50 0 0.0 1.7 0.01 0.02 0.02 87 1012.1
20260502063203 50 10 0.0 0.9 0.02 0.02 0.02 86 1011.9
20260502062201 50 227 0.0 0.9 0.01 0.01 0.01 86 1012.0
20260502061203 50 0 0.0 0.9 0.01 0.01 0.01 84 1011.8
20260502060150 51 28 0.0 0.9 0.01 0.01 0.01 83 1011.9
20260502055133 52 0 0.0 0.9 0.01 0.01 0.01 79 1011.8
20260502054133 52 0 0.0 0.0 0.01 0.01 0.01 74 1012.2
20260502053134 52 214 0.0 0.9 0.00 0.00 0.00 73 1012.4
20260502052134 53 0 0.0 0.0 0.00 0.00 0.00 69 1012.3
20260502051134 53 0 0.9 1.7 0.00 0.00 0.00 68 1012.4
20260502050121 53 276 0.0 1.7 0.00 0.00 0.00 68 1012.3
20260502045121 53 0 0.0 1.7 0.00 0.00 0.00 67 1012.1
20260502044122 53 0 0.0 1.7 0.00 0.00 0.00 67 1012.2
20260502043120 53 70 0.0 1.7 0.00 0.00 0.00 67 1012.1
20260502042120 53 0 0.0 0.0 0.00 0.00 0.00 66 1011.9
20260502041120 53 0 0.0 0.9 0.00 0.00 0.00 65 1011.9
20260502040120 54 0 0.0 0.0 0.00 0.00 0.00 65 1012.1
20260502035120 54 0 0.0 0.9 0.00 0.00 0.00 65 1012.0
20260502034121 54 0 0.0 1.7 0.00 0.00 0.00 64 1012.3
20260502033118 54 0 0.0 1.7 0.00 0.00 0.00 63 1012.2
20260502032119 54 0 0.0 0.0 0.00 0.00 0.00 62 1012.2
20260502031119 55 0 0.0 0.0 0.00 0.00 0.00 60 1012.3
20260502030120 55 0 0.0 0.0 0.00 0.00 0.00 58 1012.2
20260502025118 56 0 0.0 0.0 0.00 0.00 0.00 57 1012.2
20260502024118 56 0 0.0 1.7 0.00 0.00 0.00 55 1012.1
20260502023117 56 240 0.0 2.6 0.00 0.00 0.00 53 1012.2
20260502022120 56 224 0.0 2.6 0.00 0.00 0.00 52 1012.1
20260502021117 57 0 0.0 0.0 0.00 0.00 0.00 49 1012.1
20260502020115 57 0 0.0 0.9 0.00 0.00 0.00 49 1012.1
20260502015116 57 0 0.0 1.7 0.00 0.00 0.00 47 1012.2
20260502014114 57 225 0.9 1.7 0.00 0.00 0.00 49 1012.1
20260502013111 57 0 0.0 0.0 0.00 0.00 0.00 49 1011.9
20260502012111 56 0 0.0 2.6 0.00 0.00 0.00 46 1011.9
20260502011111 56 0 0.0 0.0 0.00 0.00 0.00 55 1011.7
20260502010111 56 0 0.0 0.0 0.00 0.00 0.00 52 1011.4
20260502005113 56 0 0.0 0.0 0.00 0.00 0.00 51 1011.3
20260502004110 56 0 0.0 0.9 0.00 0.00 0.00 53 1011.3
20260502003109 57 0 0.0 0.9 0.00 0.00 0.00 52 1011.1
20260502002109 57 0 0.0 0.0 0.00 0.00 0.00 47 1011.0
20260502001109 58 0 0.0 0.0 0.00 0.00 0.00 46 1010.8
20260502000110 59 0 0.0 0.0 0.00 0.00 0.00 44 1010.7
20260501235110 59 0 0.0 0.0 0.00 0.00 0.00 42 1010.6
20260501234107 60 0 0.0 0.9 0.00 0.00 0.00 39 1010.5
20260501233108 60 0 0.0 0.9 0.00 0.00 0.00 39 1010.4
20260501232108 61 0 0.0 0.9 0.00 0.00 0.00 37 1010.3
20260501231107 61 220 0.0 2.6 0.00 0.00 0.00 37 1010.2
20260501230105 62 233 0.9 2.6 0.00 0.00 0.00 36 1010.1
20260501225104 63 226 0.9 5.2 0.00 0.00 0.00 34 1010.0
20260501224105 64 202 0.9 4.3 0.00 0.00 0.00 32 1009.9
20260501223106 65 0 0.9 2.6 0.00 0.00 0.00 33 1009.9
20260501222105 65 0 0.9 5.2 0.00 0.00 0.00 31 1009.8
20260501221103 66 217 0.9 3.5 0.00 0.00 0.00 31 1010.0
20260501215101 67 254 1.7 5.2 0.00 0.00 0.00 30 1010.1
20260501214059 66 241 0.9 2.6 0.00 0.00 0.00 32 1010.0
20260501213101 68 202 1.7 6.1 0.00 0.00 0.00 32 1010.1
20260501212101 68 275 0.9 5.2 0.00 0.00 0.00 30 1010.1
20260501211101 66 0 1.7 5.2 0.00 0.00 0.00 30 1010.0
20260501210058 66 195 2.6 6.1 0.00 0.00 0.00 31 1010.0
20260501205058 66 220 2.6 5.2 0.00 0.00 0.00 32 1010.0
20260501204059 67 253 1.7 7.0 0.00 0.00 0.00 31 1010.0
20260501203100 66 265 1.7 5.2 0.00 0.00 0.00 31 1010.0
20260501202059 66 20 1.7 6.1 0.00 0.00 0.00 31 1010.0
20260501201056 64 208 2.6 11.3 0.00 0.00 0.00 33 1010.1
20260501200056 65 223 2.6 7.8 0.00 0.00 0.00 32 1010.0
20260501195057 64 105 2.6 8.7 0.00 0.00 0.00 32 1010.0
20260501194057 64 220 2.6 7.0 0.00 0.00 0.00 33 1009.9
20260501193057 64 213 2.6 7.8 0.00 0.00 0.00 34 1010.2
20260501192059 64 142 2.6 7.8 0.00 0.00 0.00 33 1010.3
20260501191056 64 259 1.7 6.1 0.00 0.00 0.00 35 1010.4
20260501190055 63 227 1.7 6.1 0.00 0.00 0.00 34 1010.6
20260501185053 62 221 2.6 7.8 0.00 0.00 0.00 35 1010.6
20260501184055 63 260 2.6 6.1 0.00 0.00 0.00 35 1010.7
20260501183056 63 176 3.5 7.8 0.00 0.00 0.00 33 1010.9
20260501182054 65 173 1.7 6.1 0.00 0.00 0.00 32 1010.9
20260501181051 63 75 1.7 7.8 0.00 0.00 0.00 33 1011.0
20260501180051 63 251 2.6 7.8 0.00 0.00 0.00 33 1011.0
20260501175051 63 265 1.7 7.0 0.00 0.00 0.00 34 1011.2
20260501174051 64 68 1.7 5.2 0.00 0.00 0.00 33 1010.9
20260501173050 64 226 2.6 6.1 0.00 0.00 0.00 35 1011.0
20260501172047 64 254 1.7 7.8 0.00 0.00 0.00 33 1011.0
20260501171045 62 238 1.7 6.1 0.00 0.00 0.00 34 1011.1
20260501170047 62 252 2.6 7.0 0.00 0.00 0.00 34 1011.2
20260501165047 62 290 2.6 6.1 0.00 0.00 0.00 35 1011.3
20260501164047 62 151 1.7 3.5 0.00 0.00 0.00 37 1011.3
20260501163047 60 222 2.6 5.2 0.00 0.00 0.00 37 1011.3
20260501162046 60 230 1.7 5.2 0.00 0.00 0.00 38 1011.4
20260501161046 60 194 1.7 7.0 0.00 0.00 0.00 41 1011.3
20260501160047 60 49 1.7 7.0 0.00 0.00 0.00 40 1011.4
20260501155047 60 45 1.7 4.3 0.00 0.00 0.00 44 1011.6
20260501154046 59 223 0.9 6.1 0.00 0.00 0.00 43 1011.8